Location: Berbisdorf
(50.7638°N, 12.9442°E)
Time: 13:12:00
(UTC+00:00)

STARLINK-1317 - Pass Details

Date: 04 October 2020
Orbit: 549 x 550 km, 53.0° (Epoch: 27 October)

Event Time Altitude Azimuth Distance (km) Brightness Sun altitude
Exits shadow 04:07:40 - 212° (SSW) 2,327 6.4 -11.3°
Reaches altitude 10° 04:09:03 10° 205° (SSW) 1,816 6.0 -11.0°
Maximum altitude 04:12:43 31° 142° (SE) 972 5.2 -10.5°
Drops below altitude 10° 04:16:24 10° 80° (E) 1,825 7.9 -9.9°
Sets 04:18:48 0° 70° (ENE) 2,722 8.9 -9.5°
